Location: Davidschlag
(48.4333°N, 14.2833°E)
Time: 23:03:57
(UTC+00:00)

Cosmos 2195 Rocket - Pass Details

Date: 27 February 2020
Orbit: 949 x 993 km, 82.9° (Epoch: 05 April)

Event Time Altitude Azimuth Distance (km) Brightness Sun altitude
Rises 18:56:19 0° 351° (N) 3,637 7.8 -22.8°
Reaches altitude 10° 18:58:49 10° 352° (N) 2,691 7.1 -23.2°
Maximum altitude 19:04:59 86° 80° (E) 967 4.3 -24.2°
Enters shadow 19:08:27 28° 170° (S) 1,716 5.5 -24.7°
